Overview Statistics Trail Chart Weather Telemetry Raw packets
 

This is the latest recevied weather packets stored in our database for station/object N6GPM. If no packets are shown the sender has not sent any weather packets the latest 10 day(s).

<< 73 74 75 76 77 78 79 >>
Time Temp. Humidity Pressure Rain* Wind** Luminosity Snow
1788156109 22.22° C 66% 1016.8 hPa 0 mm - 0 W/m² -
1788155809 22.78° C 66% 1016.7 hPa 0 mm - 0 W/m² -
1788155504 22.78° C 66% 1016.9 hPa 0 mm - 0 W/m² -
1788155204 22.22° C 66% 1017.2 hPa 0 mm - 0 W/m² -
1788154898 22.78° C 66% 1017 hPa 0 mm - 0 W/m² -
1788154592 22.78° C 66% 1017 hPa 0 mm - 0 W/m² -
1788154286 22.78° C 67% 1017.2 hPa 0 mm - 0 W/m² -
1788153985 22.78° C 67% 1016.8 hPa 0 mm - 0 W/m² -
1788153684 22.78° C 67% 1016.9 hPa 0 mm - 0 W/m² -
1788153383 22.78° C 67% 1017 hPa 0 mm - 0 W/m² -
1788153081 22.78° C 67% 1016.9 hPa 0 mm - 0 W/m² -
1788152776 22.78° C 67% 1016.8 hPa 0 mm - 0 W/m² -
1788152475 23.33° C 67% 1016.9 hPa 0 mm - 0 W/m² -
1788152169 23.33° C 67% 1016.7 hPa 0 mm - 0 W/m² -
1788151864 23.33° C 66% 1016.9 hPa 0 mm - 0 W/m² -
1788151559 23.33° C 66% 1017 hPa 0 mm - 0 W/m² -
1788151255 23.89° C 64% 1016.9 hPa 0 mm - 0 W/m² -
1788150950 23.89° C 63% 1016.8 hPa 0 mm - 0 W/m² -
1788150645 24.44° C 62% 1016.8 hPa 0 mm - 0 W/m² -
1788150344 24.44° C 61% 1016.8 hPa 0 mm - 0 W/m² -
1788150040 24.44° C 61% 1016.8 hPa 0 mm - 0 W/m² -
1788149735 25° C 60% 1016.7 hPa 0 mm - 0 W/m² -
1788149433 25° C 59% 1016.7 hPa 0 mm - 0 W/m² -
1788149128 25° C 59% 1016.4 hPa 0 mm - 0 W/m² -
1788148833 25° C 57% 1016.6 hPa 0 mm - 0 W/m² -

* Rain latest hour (hover to see other rain measurements)
** Current wind speed in m/s (hover to see current wind gust speed)